User: anonymous   Login
Location: Caltech
(34.1382°N, 118.1253°W)
Time: 23:41:21
(UTC-08:00)
Language:

ADEOS II - Orbit

View from above orbital plane
View from above orbital plane
View from above satellite
View from above satellite

Ground track
Ground track

The orbit data is extracted from the following two-line orbital elements,

1 27597U 02056A   16343.93018696  .00000088  00000-0  52969-4 0  9993
2 27597  98.3442 315.8497 0001571 123.8206 236.3126 14.27253580728282
Epoch (UTC): 08 December 2016 22:19:28
Eccentricity: 0.0001571
inclination: 98.3442°
perigee height: 800 km
apogee height: 802 km
right ascension of ascending node: 315.8497°
argument of perigee: 123.8206°
revolutions per day: 14.27253580
mean anomaly at epoch: 236.3126°
orbit number at epoch: 72828

The dashed part of the orbit path shows where the satellite is in the earth's shadow,  

DLR